Location: Wellington
(41.3000°S, 174.7830°E)
Time: 22:16:27
(UTC+12:00)

Lacrosse 5 rocket - Pass Details

Date: 24 January 2019
Orbit: 459 x 640 km, 57.0° (Epoch: 16 April)

Event Time Altitude Azimuth Distance (km) Brightness Sun altitude
Rises 22:49:01 0° 216° (SW) 2,565 6.4 -18.6°
Reaches altitude 10° 22:52:39 10° 180° (S) 1,654 4.4 -19.0°
Maximum altitude 22:53:51 11° 160° (SSE) 1,568 4.0 -19.1°
Drops below altitude 10° 22:55:04 10° 141° (SE) 1,640 3.9 -19.3°
Enters shadow 22:56:40 - 121° (ESE) 1,944 4.0 -19.5°
